Location: Newark
(44.6028°N, 124.0883°W)
Time: 21:52:20
(UTC+00:00)

NUDT-PHONESAT - Visible Passes

Search period start: 12 December 2019 00:00
Search period end: 22 December 2019 00:00
Orbit: 488 x 503 km, 97.4° (Epoch: 12 December)

Date Brightness Start Highest point End Pass type
(mag) Time Alt. Az. Time Alt. Az. Time Alt. Az.
12 Dec ? 02:27:32 10° SSW 02:30:56 36° W 02:34:22 10° NNW visible
12 Dec ? 13:54:57 10° NE 13:57:22 16° E 13:59:47 10° SE visible
13 Dec ? 02:06:16 10° S 02:09:54 67° W 02:13:35 10° NNW visible
13 Dec ? 15:06:35 10° N 15:10:16 64° WNW 15:13:54 10° SSW visible
14 Dec ? 01:45:18 10° SSE 01:48:55 65° ENE 01:52:36 10° N visible
14 Dec ? 14:45:35 10° NNE 14:49:17 68° ESE 14:52:57 10° S visible
15 Dec ? 01:24:38 10° SE 01:28:01 36° ENE 01:31:26 10° N visible
15 Dec ? 02:59:27 10° SW 03:01:49 16° W 03:04:11 10° NW visible
15 Dec ? 14:24:47 10° NNE 14:28:15 36° E 14:31:41 10° SSE visible
16 Dec ? 02:37:29 10° SSW 02:40:40 28° W 02:43:54 10° NW visible
16 Dec ? 14:04:16 10° NE 14:07:09 21° E 14:09:59 10° SE visible
17 Dec ? 02:16:02 10° S 02:19:36 50° W 02:23:13 10° NNW visible
17 Dec ? 13:44:26 10° ENE 13:45:58 12° E 13:47:30 10° ESE visible
18 Dec ? 01:54:55 10° SSE 01:58:36 87° ENE 02:02:18 10° NNW visible
18 Dec ? 14:55:15 10° NNE 14:58:58 90° W 15:02:38 10° SSW visible
19 Dec ? 01:34:06 10° SSE 01:37:38 46° ENE 01:41:13 10° N visible
19 Dec ? 03:09:53 10° WSW 03:11:34 13° W 03:13:15 10° WNW visible
19 Dec ? 14:34:20 10° NNE 14:37:57 48° E 14:41:30 10° S visible
20 Dec ? 01:13:37 10° SE 01:16:45 27° ENE 01:19:54 10° N visible
20 Dec ? 02:47:30 10° SW 02:50:23 22° W 02:53:18 10° NW visible
20 Dec ? 14:13:40 10° NE 14:16:51 27° E 14:20:00 10° SSE visible
21 Dec ? 02:25:50 10° SSW 02:29:16 38° W 02:32:45 10° NNW visible
21 Dec ? 13:53:24 10° NE 13:55:41 16° E 13:57:58 10° SE visible
